GW4987 Weather Reports


time (UTC)temp
C
wind
direction
speed
KPH
gust
KPH
rain 1hr
cm
rain 24hr
cm
rain mn
cm
humidity
%
barometer
mb
20260509195546 27 244 19.3 32.2 0.00 0.00 0.00 15 1018.8
20260509195047 27 252 22.5 38.6 0.00 0.00 0.00 14 1018.9
20260509193047 26 240 11.3 24.1 0.00 0.00 0.00 14 1018.9
20260509192508 26 261 9.7 32.2 0.00 0.00 0.00 16 1018.9
20260509190546 26 277 16.1 29.0 0.00 0.00 0.00 16 1019.0
20260509190046 26 246 16.1 19.3 0.00 0.00 0.00 15 1019.3
20260509185547 26 284 8.0 17.7 0.00 0.00 0.00 15 1019.0
20260509185007 27 269 11.3 19.3 0.00 0.00 0.00 15 1019.3
20260509184546 26 197 14.5 32.2 0.00 0.00 0.00 16 1019.2
20260509184047 26 211 22.5 24.1 0.00 0.00 0.00 15 1019.2
20260509182047 27 193 11.3 37.0 0.00 0.00 0.00 15 1019.4
20260509181547 26 300 24.1 40.2 0.00 0.00 0.00 15 1019.3
20260509181047 26 267 22.5 33.8 0.00 0.00 0.00 16 1019.4
20260509175046 26 307 12.9 16.1 0.00 0.00 0.00 16 1019.4
20260509174509 26 269 19.3 25.7 0.00 0.00 0.00 16 1019.4
20260509174008 26 266 16.1 17.7 0.00 0.00 0.00 16 1019.4
20260509173547 26 147 3.2 11.3 0.00 0.00 0.00 15 1019.6
20260509173008 26 219 12.9 27.4 0.00 0.00 0.00 15 1019.4
20260509171008 26 284 3.2 8.0 0.00 0.00 0.00 15 1019.3
20260509170546 26 318 14.5 16.1 0.00 0.00 0.00 15 1019.5
20260509170047 26 316 12.9 12.9 0.00 0.00 0.00 15 1019.4
20260509165508 26 307 19.3 24.1 0.00 0.00 0.00 15 1019.3
20260509165008 26 35 8.0 11.3 0.00 0.00 0.00 16 1019.5
20260509164547 26 19 8.0 12.9 0.00 0.00 0.00 17 1019.5
20260509164047 26 46 3.2 14.5 0.00 0.00 0.00 17 1019.4
20260509163527 26 301 8.0 11.3 0.00 0.00 0.00 17 1019.5
20260509163047 26 25 4.8 20.9 0.00 0.00 0.00 17 1019.3
20260509162547 26 334 8.0 12.9 0.00 0.00 0.00 17 1019.2
20260509162007 26 60 14.5 14.5 0.00 0.00 0.00 17 1019.3
20260509161546 25 23 6.4 12.9 0.00 0.00 0.00 17 1019.2
20260509161046 25 3 8.0 11.3 0.00 0.00 0.00 17 1019.4
20260509160546 26 353 4.8 9.7 0.00 0.00 0.00 17 1019.3
20260509160008 25 26 8.0 12.9 0.00 0.00 0.00 18 1019.4
20260509155547 25 34 6.4 11.3 0.00 0.00 0.00 19 1019.4
20260509155008 25 323 9.7 9.7 0.00 0.00 0.00 19 1019.3
20260509154546 25 346 6.4 14.5 0.00 0.00 0.00 19 1019.4
20260509154046 25 287 9.7 12.9 0.00 0.00 0.00 17 1019.2
20260509153547 26 318 0.0 8.0 0.00 0.00 0.00 17 1019.4
20260509153007 25 70 8.0 9.7 0.00 0.00 0.00 18 1019.2
20260509152546 25 19 4.8 8.0 0.00 0.00 0.00 18 1019.2
20260509152047 25 25 6.4 11.3 0.00 0.00 0.00 20 1019.3
20260509151507 24 63 4.8 8.0 0.00 0.00 0.00 19 1019.0
20260509151007 23 297 4.8 12.9 0.00 0.00 0.00 19 1019.2
20260509150547 23 301 6.4 9.7 0.00 0.00 0.00 18 1019.2
20260509150047 23 290 6.4 14.5 0.00 0.00 0.00 19 1019.3
20260509145547 23 269 6.4 12.9 0.00 0.00 0.00 19 1019.4
20260509145046 23 264 11.3 16.1 0.00 0.00 0.00 19 1019.2
20260509144547 23 241 6.4 16.1 0.00 0.00 0.00 20 1019.3
20260509144008 22 328 6.4 8.0 0.00 0.00 0.00 20 1019.3
20260509143547 22 271 8.0 9.7 0.00 0.00 0.00 21 1019.2
20260509143047 22 120 3.2 4.8 0.00 0.00 0.00 25 1019.2
20260509142508 23 86 4.8 6.4 0.00 0.00 0.00 25 1019.3
20260509142008 22 75 4.8 4.8 0.00 0.00 0.00 23 1019.0
20260509141547 22 136 3.2 4.8 0.00 0.00 0.00 26 1019.2
20260509141008 22 130 3.2 3.2 0.00 0.00 0.00 25 1018.9
20260509140546 21 103 4.8 4.8 0.00 0.00 0.00 24 1019.2
20260509140047 21 74 3.2 3.2 0.00 0.00 0.00 25 1019.0
20260509135546 20 102 3.2 3.2 0.00 0.00 0.00 27 1019.2
20260509135027 20 129 3.2 3.2 0.00 0.00 0.00 27 1019.0
20260509134546 20 156 0.0 4.8 0.00 0.00 0.00 27 1019.2
20260509134046 20 126 4.8 6.4 0.00 0.00 0.00 26 1019.0
20260509133547 19 319 0.0 4.8 0.00 0.00 0.00 24 1019.0
20260509133008 18 239 4.8 8.0 0.00 0.00 0.00 24 1018.9
20260509132547 18 276 6.4 9.7 0.00 0.00 0.00 24 1018.7
20260509132047 18 274 11.3 11.3 0.00 0.00 0.00 23 1018.7
20260509131547 18 262 6.4 11.3 0.00 0.00 0.00 23 1018.7
20260509131047 18 263 9.7 14.5 0.00 0.00 0.00 23 1018.5
20260509130547 17 258 12.9 14.5 0.00 0.00 0.00 24 1018.8
20260509130008 17 271 9.7 12.9 0.00 0.00 0.00 24 1018.4
20260509125546 17 250 8.0 12.9 0.00 0.00 0.00 24 1018.5
20260509125046 17 260 12.9 14.5 0.00 0.00 0.00 24 1018.5
20260509124508 17 262 9.7 11.3 0.00 0.00 0.00 24 1018.4
20260509124008 17 261 9.7 12.9 0.00 0.00 0.00 24 1018.4
20260509123547 17 268 11.3 14.5 0.00 0.00 0.00 24 1018.2
20260509123008 17 263 12.9 12.9 0.00 0.00 0.00 25 1018.3
20260509122546 17 262 9.7 14.5 0.00 0.00 0.00 25 1018.2
20260509122047 17 248 12.9 12.9 0.00 0.00 0.00 25 1018.3
20260509121547 17 256 8.0 14.5 0.00 0.00 0.00 25 1018.3
20260509121007 17 268 11.3 16.1 0.00 0.00 0.00 25 1018.0
20260509120547 17 260 12.9 12.9 0.00 0.00 0.00 25 1018.1
20260509120047 17 260 12.9 14.5 0.00 0.00 0.00 25 1018.0
20260509115508 17 267 9.7 16.1 0.00 0.00 0.00 25 1018.1
20260509115046 17 272 12.9 16.1 0.00 0.00 0.00 25 1018.2
20260509114546 17 255 9.7 16.1 0.00 0.00 0.00 25 1018.2
20260509114047 17 266 11.3 17.7 0.00 0.00 0.00 25 1018.1
20260509113546 17 261 12.9 16.1 0.00 0.00 0.00 25 1018.0
20260509113046 17 257 11.3 16.1 0.00 0.00 0.00 25 1018.1
20260509112547 17 263 9.7 17.7 0.00 0.00 0.00 25 1018.0
20260509112007 17 257 9.7 17.7 0.00 0.00 0.00 25 1018.0
20260509111547 17 265 9.7 16.1 0.00 0.00 0.00 25 1018.0
20260509111047 17 271 9.7 19.3 0.00 0.00 0.00 25 1018.0
20260509110507 17 256 12.9 14.5 0.00 0.00 0.00 25 1018.2
20260509110007 17 251 12.9 16.1 0.00 0.00 0.00 25 1018.2
20260509105547 17 264 16.1 16.1 0.00 0.00 0.00 25 1018.2
20260509105007 17 250 11.3 14.5 0.00 0.00 0.00 25 1018.0
20260509104547 17 260 12.9 14.5 0.00 0.00 0.00 25 1018.2
20260509104047 17 252 8.0 14.5 0.00 0.00 0.00 25 1018.2
20260509103547 17 264 9.7 16.1 0.00 0.00 0.00 25 1018.2
20260509103008 17 265 12.9 14.5 0.00 0.00 0.00 25 1018.1
20260509102546 17 257 14.5 19.3 0.00 0.00 0.00 24 1018.2
20260509102046 17 255 11.3 14.5 0.00 0.00 0.00 24 1018.2
20260509101547 17 255 11.3 16.1 0.00 0.00 0.00 24 1018.3
20260509101008 17 272 11.3 14.5 0.00 0.00 0.00 24 1018.6
20260509100546 17 272 12.9 14.5 0.00 0.00 0.00 24 1018.3
20260509100047 17 255 11.3 16.1 0.00 0.00 0.00 24 1018.4
20260509094008 17 264 12.9 16.1 0.00 0.00 0.00 24 1018.4
20260509093546 17 267 14.5 16.1 0.00 0.00 0.00 23 1018.5
20260509093047 17 259 11.3 14.5 0.00 0.00 0.00 24 1018.5
20260509092508 17 262 9.7 14.5 0.00 0.00 0.00 24 1018.5
20260509092008 17 265 11.3 16.1 0.00 0.00 0.00 24 1018.4
20260509091547 17 232 8.0 14.5 0.00 0.00 0.00 24 1018.5
20260509085546 18 257 9.7 19.3 0.00 0.00 0.00 23 1018.4
20260509085008 18 274 12.9 16.1 0.00 0.00 0.00 23 1018.5
20260509084547 18 263 11.3 17.7 0.00 0.00 0.00 23 1018.5
20260509084047 18 248 14.5 16.1 0.00 0.00 0.00 23 1018.4
20260509083547 18 272 12.9 14.5 0.00 0.00 0.00 23 1018.5
20260509083008 18 263 11.3 14.5 0.00 0.00 0.00 23 1018.7
20260509082546 18 267 11.3 16.1 0.00 0.00 0.00 23 1018.5
20260509082046 18 241 9.7 16.1 0.00 0.00 0.00 23 1018.5
20260509081546 18 241 12.9 20.9 0.00 0.00 0.00 23 1018.7
20260509081046 18 275 11.3 14.5 0.00 0.00 0.00 23 1018.6
20260509080546 18 259 8.0 17.7 0.00 0.00 0.00 22 1018.7
20260509074507 18 262 14.5 16.1 0.00 0.00 0.00 22 1018.9
20260509074008 18 268 11.3 17.7 0.00 0.00 0.00 22 1018.6
20260509073546 18 263 11.3 19.3 0.00 0.00 0.00 22 1018.7
20260509073007 18 264 9.7 16.1 0.00 0.00 0.00 22 1018.7
20260509072547 18 256 9.7 19.3 0.00 0.00 0.00 22 1018.9
20260509072046 18 262 9.7 14.5 0.00 0.00 0.00 22 1018.8
20260509071546 18 258 11.3 14.5 0.00 0.00 0.00 22 1018.9
20260509071047 18 264 8.0 14.5 0.00 0.00 0.00 22 1018.8
20260509070509 19 263 16.1 16.1 0.00 0.00 0.00 22 1018.8
20260509070009 18 261 11.3 14.5 0.00 0.00 0.00 22 1019.0
20260509065507 18 260 9.7 11.3 0.00 0.00 0.00 22 1018.8
20260509065007 18 267 8.0 11.3 0.00 0.00 0.00 22 1018.9
20260509064547 18 207 8.0 11.3 0.00 0.00 0.00 21 1018.9
20260509064047 19 260 8.0 11.3 0.00 0.00 0.00 21 1018.9
20260509063547 19 251 11.3 16.1 0.00 0.00 0.00 21 1018.8
20260509062008 19 275 12.9 17.7 0.00 0.00 0.00 21 1019.0
20260509061547 20 261 9.7 14.5 0.00 0.00 0.00 21 1019.0
20260509061047 20 268 8.0 16.1 0.00 0.00 0.00 21 1018.9
20260509060508 20 271 12.9 12.9 0.00 0.00 0.00 21 1018.8
20260509060047 20 256 11.3 17.7 0.00 0.00 0.00 21 1019.2
20260509055547 19 266 8.0 11.3 0.00 0.00 0.00 21 1018.9
20260509055008 19 238 8.0 12.9 0.00 0.00 0.00 21 1018.8
20260509054547 20 231 6.4 12.9 0.00 0.00 0.00 21 1018.8
20260509054047 20 248 11.3 14.5 0.00 0.00 0.00 21 1018.9
20260509053547 20 260 6.4 16.1 0.00 0.00 0.00 21 1019.2
20260509053008 20 257 11.3 16.1 0.00 0.00 0.00 21 1019.0
20260509052547 20 247 9.7 16.1 0.00 0.00 0.00 21 1019.0
20260509051007 20 248 6.4 17.7 0.00 0.00 0.00 21 1019.0
20260509050546 20 251 14.5 20.9 0.00 0.00 0.00 21 1018.7
20260509050047 20 237 4.8 14.5 0.00 0.00 0.00 21 1019.0
20260509045546 20 258 11.3 17.7 0.00 0.00 0.00 21 1019.0
20260509045046 20 225 8.0 19.3 0.00 0.00 0.00 21 1018.8
20260509044547 20 238 9.7 17.7 0.00 0.00 0.00 21 1018.8
20260509044008 20 248 6.4 22.5 0.00 0.00 0.00 21 1018.8
20260509043547 20 221 11.3 17.7 0.00 0.00 0.00 21 1018.8
20260509043047 20 209 6.4 14.5 0.00 0.00 0.00 21 1018.8
20260509042547 20 233 8.0 14.5 0.00 0.00 0.00 21 1018.7
20260509042008 20 217 9.7 16.1 0.00 0.00 0.00 21 1018.7
20260509041547 20 218 14.5 17.7 0.00 0.00 0.00 21 1018.8
20260509041008 20 249 16.1 20.9 0.00 0.00 0.00 21 1018.6
20260509040546 20 222 11.3 14.5 0.00 0.00 0.00 21 1018.6
20260509040047 20 246 11.3 16.1 0.00 0.00 0.00 21 1018.5
20260509035546 20 245 12.9 16.1 0.00 0.00 0.00 21 1018.4
20260509035008 20 215 14.5 20.9 0.00 0.00 0.00 21 1018.4
20260509034547 20 212 14.5 16.1 0.00 0.00 0.00 21 1018.4
20260509034047 20 261 11.3 24.1 0.00 0.00 0.00 21 1018.3
20260509033547 20 232 4.8 19.3 0.00 0.00 0.00 22 1018.4
20260509033008 20 225 8.0 20.9 0.00 0.00 0.00 22 1018.3
20260509032546 21 245 8.0 17.7 0.00 0.00 0.00 22 1018.2
20260509032047 21 232 16.1 17.7 0.00 0.00 0.00 22 1018.3
20260509030008 21 261 8.0 19.3 0.00 0.00 0.00 21 1018.2
20260509025546 21 231 17.7 20.9 0.00 0.00 0.00 21 1018.0
20260509025047 21 213 8.0 16.1 0.00 0.00 0.00 21 1018.0
20260509024508 21 228 14.5 20.9 0.00 0.00 0.00 21 1018.0
20260509024008 21 232 8.0 20.9 0.00 0.00 0.00 21 1017.7
20260509023546 21 222 8.0 20.9 0.00 0.00 0.00 21 1017.8
20260509023008 22 220 8.0 19.3 0.00 0.00 0.00 21 1017.8
20260509022546 22 242 16.1 20.9 0.00 0.00 0.00 21 1017.6
20260509022046 22 207 11.3 17.7 0.00 0.00 0.00 21 1017.7
20260509021547 22 233 9.7 16.1 0.00 0.00 0.00 21 1017.5
20260509021009 22 240 6.4 14.5 0.00 0.00 0.00 21 1017.7
20260509020547 22 217 8.0 20.9 0.00 0.00 0.00 20 1017.6
20260509020046 23 223 19.3 24.1 0.00 0.00 0.00 20 1017.5
20260509015509 23 228 12.9 22.5 0.00 0.00 0.00 19 1017.4
20260509015009 23 228 12.9 22.5 0.00 0.00 0.00 19 1017.5
20260509014546 23 228 12.9 22.5 0.00 0.00 0.00 19 1017.4
20260509014047 23 246 19.3 33.8 0.00 0.00 0.00 19 1017.4
20260509013547 24 225 14.5 33.8 0.00 0.00 0.00 19 1017.3
20260509013047 24 216 11.3 19.3 0.00 0.00 0.00 19 1017.5
20260509012547 24 241 11.3 25.7 0.00 0.00 0.00 19 1017.4
20260509012008 24 226 14.5 22.5 0.00 0.00 0.00 19 1017.3
20260509011547 25 199 17.7 29.0 0.00 0.00 0.00 19 1017.4
20260509011047 25 227 17.7 35.4 0.00 0.00 0.00 19 1017.5
20260509010508 25 266 24.1 25.7 0.00 0.00 0.00 19 1017.6
20260509010008 25 220 29.0 41.8 0.00 0.00 0.00 19 1017.4
20260509005547 25 207 17.7 30.6 0.00 0.00 0.00 19 1017.5
20260509005008 25 232 16.1 24.1 0.00 0.00 0.00 19 1017.6
20260509004547 25 265 25.7 30.6 0.00 0.00 0.00 19 1017.5
20260509004047 25 222 27.4 33.8 0.00 0.00 0.00 19 1017.3
20260509003546 26 212 14.5 19.3 0.00 0.00 0.00 18 1017.4
20260509003008 26 195 14.5 30.6 0.00 0.00 0.00 18 1017.6
20260509002547 25 253 20.9 27.4 0.00 0.00 0.00 18 1017.3
20260509002047 25 191 11.3 29.0 0.00 0.00 0.00 18 1017.3
20260509001509 26 217 20.9 29.0 0.00 0.00 0.00 18 1017.5
20260508235546 26 216 19.3 32.2 0.00 0.00 0.00 18 1017.3
20260508235046 26 192 17.7 32.2 0.00 0.00 0.00 18 1017.6
20260508234547 26 247 11.3 32.2 0.00 0.00 0.00 18 1017.6
20260508232508 25 219 11.3 38.6 0.00 0.00 0.00 18 1017.8
20260508232008 26 297 8.0 27.4 0.00 0.00 0.00 18 1017.6
20260508231547 26 209 14.5 22.5 0.00 0.00 0.00 18 1017.7
20260508225547 26 204 16.1 25.7 0.00 0.00 0.00 18 1017.8
20260508225009 26 252 9.7 30.6 0.00 0.00 0.00 17 1017.7
20260508224547 26 246 12.9 37.0 0.00 0.00 0.00 18 1017.7
20260508224047 26 248 20.9 38.6 0.00 0.00 0.00 18 1017.7
20260508223547 26 212 16.1 22.5 0.00 0.00 0.00 17 1017.7
20260508223008 25 254 14.5 32.2 0.00 0.00 0.00 18 1017.9
20260508222547 26 252 24.1 33.8 0.00 0.00 0.00 17 1017.8
20260508222047 26 236 17.7 20.9 0.00 0.00 0.00 17 1017.9
20260508221546 25 267 17.7 32.2 0.00 0.00 0.00 18 1018.0
20260508221046 26 275 12.9 17.7 0.00 0.00 0.00 18 1017.9
20260508220547 26 294 14.5 25.7 0.00 0.00 0.00 17 1018.0
20260508220008 27 234 14.5 24.1 0.00 0.00 0.00 17 1018.0
20260508215546 25 248 11.3 24.1 0.00 0.00 0.00 18 1018.1
20260508215047 26 274 16.1 40.2 0.00 0.00 0.00 17 1018.2
20260508211547 26 262 20.9 35.4 0.00 0.00 0.00 16 1018.2
20260508211008 26 253 27.4 33.8 0.00 0.00 0.00 16 1018.3
20260508210547 26 288 19.3 37.0 0.00 0.00 0.00 16 1018.5
20260508210046 26 249 20.9 25.7 0.00 0.00 0.00 17 1018.4
20260508205508 25 203 12.9 27.4 0.00 0.00 0.00 17 1018.6
20260508205047 26 276 19.3 32.2 0.00 0.00 0.00 17 1018.5
20260508204547 25 280 11.3 37.0 0.00 0.00 0.00 17 1018.4
20260508204047 26 232 11.3 17.7 0.00 0.00 0.00 17 1018.5
20260508203547 25 269 12.9 33.8 0.00 0.00 0.00 17 1018.5
20260508203047 26 265 19.3 35.4 0.00 0.00 0.00 17 1018.7
20260508202547 26 224 8.0 25.7 0.00 0.00 0.00 18 1018.5
20260508202009 26 253 17.7 22.5 0.00 0.00 0.00 17 1018.7
20260508201547 27 241 14.5 22.5 0.00 0.00 0.00 17 1018.6
20260508201047 26 249 8.0 16.1 0.00 0.00 0.00 17 1018.7
20260508200509 26 295 20.9 32.2 0.00 0.00 0.00 17 1018.7
20260508200009 26 175 6.4 22.5 0.00 0.00 0.00 16 1018.7